Regional Weather Roundup
Issued by NWS

Home | Current Version | Previous Version | Graphics & Text | Print | Product List | Glossary On
Versions: 1 2 3 4 5 6 7 8 9 10 11 12 13 14 15 16 17 18 19 20 21 22 23 24 25 26 27 28 29 30 31 32 33 34 35 36 37 38 39 40 41 42 43 44 45 46 47 48 49 50
728
ASUS43 KDMX 081803
RWRIA

WEATHER ROUNDUP FOR IOWA
NATIONAL WEATHER SERVICE DES MOINES IA
1200 PM CST MON FEB 08 2016

NOTE: "FAIR" INDICATES FEW OR NO CLOUDS BELOW 12,000 FEET WITH NO
SIGNIFICANT WEATHER AND/OR OBSTRUCTIONS TO VISIBILITY.

* - THESE STATIONS ARE NOT NWS STATIONS...THUS NOT UNDER NWS
QUALITY CONTROL.  THEY ALSO DO NOT REPORT WEATHER SUCH
AS PRECIPITATION OR FOG.

IAZ001>003-012>014-020>022-031>034-043>046-081900-
   NORTHWEST IOWA

CITY           SKY/WX    TMP DP  RH WIND       PRES   REMARKS
CARROLL *      LGT SNOW  19  14  79 NW37G47   30.03S VSB 1   WCI  -1
CHEROKEE *     LGT SNOW  18  14  86 NW17G33   30.08R WCI   2
DENISON *      LGT RAIN  19  16  86 N29G38    30.05S VSB 1   WCI   1
LE MARS *      CLOUDY    23  18  80 N22G30    30.12S WCI   8
ORANGE CITY *    N/A    N/A N/A N/A N18       30.08S
SHELDON *      SNOW      18  14  86 N31G37    30.06S VSB 1/2 WCI  -2
SIOUX CITY     FLURRIES  26  16  65 N38G47    30.11S WCI   8
6HR MIN TEMP:  25; 6HR MAX TEMP:  26; 6HR PCP: TRACE;

SPENCER        LGT SNOW  15   8  73 NW38G46   30.04S WCI  -7
6HR MIN TEMP:  14; 6HR MAX TEMP:  15; 6HR PCP:  0.01;

STORM LAKE *   CLOUDY    18  10  73 N37G47    30.03S WCI  -4
$$

IAZ055>058-069>071-079>083-090>094-081900-
   SOUTHWEST IOWA

CITY           SKY/WX    TMP DP  RH WIND       PRES   REMARKS
ATLANTIC *     LGT SNOW  21  16  79 N25G35    30.07S VSB 1   WCI   4
AUDUBON *      CLOUDY    21  16  79 NW28G36   30.04F WCI   3
CLARINDA *     FLURRIES  25  18  74 N25G35    30.10S WCI   9
COUNCIL BLFS *   N/A     27  16  63 N26G40    30.08F WCI  11
CRESTON *      LGT SNOW  21  12  68 NW40G52   30.00F WCI   1
HARLAN  *      LGT SNOW  21  16  79 N30G37    30.10S WCI   3
LAMONI         FLURRIES  21  11  65 NW28G40   29.99F WCI   3
6HR MIN TEMP:  20; 6HR MAX TEMP:  23; 6HR PCP: TRACE;

SHENANDOAH *   CLOUDY    27  19  74 N25G32    30.11S WCI  11
$$

IAZ047>049-059>061-072>074-084-081900-
   CENTRAL IOWA

CITY           SKY/WX    TMP DP  RH WIND       PRES   REMARKS
AMES           MIX PCPN  16   8  71 N28G38    29.98S WCI  -4
6HR MIN TEMP:  14; 6HR MAX TEMP:  16; 6HR PCP: TRACE;

ANKENY *       CLOUDY    18   7  62 NW24G39   29.98F WCI   0
BOONE *        LGT SNOW  16   7  67 NW28G39   29.96F WCI  -4
CHARITON *     LGT SNOW  19  10  68 NW26G40   29.96S WCI   1
DES MOINES     BLWGSNOW  18   8  65 NW35G45   29.97F VSB 1   WCI  -3
6HR MIN TEMP:  17; 6HR MAX TEMP:  19; 6HR PCP: TRACE;

GRINNELL*      CLOUDY    16  10  78 NW24G39   29.92R WCI  -2
KNOXVILLE *    CLOUDY    18   9  68 NW29G35   29.94R WCI  -2
MARSHALLTOWN   CLOUDY    15   7  70 NW30G43   29.92F WCI  -5
6HR MIN TEMP:  14; 6HR MAX TEMP:  15; 6HR PCP: TRACE;

NEWTON *       LGT SNOW  16  10  79 NW29G37   29.94R WCI  -4
PELLA *        CLOUDY    18  10  73 NW25G37   29.96S HAZE    WCI  -1
$$

IAZ004>006-015-016-023>025-035-036-081900-
   NORTH CENTRAL IOWA

CITY           SKY/WX    TMP DP  RH WIND       PRES   REMARKS
ALGONA *       LGT SNOW  16   9  73 NW31G40   29.96F WCI  -5
CLARION *      LGT SNOW  14   7  73 NW33G41   29.95S WCI  -8
ESTHERVILLE    LGT SNOW  14   9  80 NW33G40   29.99F VSB 3/4 WCI  -8
6HR MIN TEMP:  11; 6HR MAX TEMP:  14; 6HR PCP:  0.01;

FORT DODGE *   PTSUNNY   18   7  62 NW14G31   30.00S WCI   4
MASON CITY     LGT SNOW  13   7  77 NW25G40   29.93R WCI  -7
6HR MIN TEMP:  11; 6HR MAX TEMP:  13; 6HR PCP: TRACE;

FOREST CITY *  CLOUDY    14   9  79 NW26G35   29.93R HAZE    WCI  -6
WEBSTER CITY * LGT SNOW  14  10  85 NW37G43   29.96S VSB 1   WCI  -9
IOWA FALLS *   CLOUDY    15  11  85 NW25G36   29.94S WCI  -5
$$

IAZ007>011-017>019-026>030-037>042-050>054-066-081900-
   NORTHEAST IOWA

CITY           SKY/WX    TMP DP  RH WIND       PRES   REMARKS
CEDAR RAPIDS   LGT SNOW  16  11  80 NW25G32   29.85R WCI  -3
6HR MIN TEMP:  16; 6HR MAX TEMP:  18; 6HR PCP: TRACE;

CHARLES CITY * CLOUDY    14   9  79 NW25G32   29.88S WCI  -5
CLINTON *      FLURRIES  22  15  75 NW20G25   29.78S WCI   7
DECORAH *      FLURRIES  16   9  73 NW18G26   29.81S WCI  -1
DUBUQUE        CLOUDY    19  12  74 NW14      29.76S WCI   6
6HR MIN TEMP:  16; 6HR MAX TEMP:  19; 6HR PCP: TRACE;

MONTICELLO *   FLURRIES  19  12  73 NW20      29.81R WCI   4
OELWEIN *      LGT SNOW  14   9  79 NW29G36   29.84S VSB 3/4 WCI  -7
WATERLOO       LGT SNOW  15   8  73 NW29G35   29.88R WCI  -5
6HR MIN TEMP:  13; 6HR MAX TEMP:  15; 6HR PCP: TRACE;

$$

IAZ064-065-067-068-078-081900-
   EAST CENTRAL IOWA

CITY           SKY/WX    TMP DP  RH WIND       PRES   REMARKS
DAVENPORT      FLURRIES  20  12  71 NW21G28   29.80S WCI   4
6HR MIN TEMP:  19; 6HR MAX TEMP:  21; 6HR PCP: TRACE;

IOWA CITY      LGT SNOW  18  10  71 NW22G32   29.88R WCI   1
6HR MIN TEMP:  18; 6HR MAX TEMP:  19; 6HR PCP: TRACE;

MT. PLEASANT * LGT SNOW  21  14  73 W21G29    29.88S WCI   6
MUSCATINE *    FLURRIES  21  12  68 NW20G26   29.87R WCI   6
QUAD CITIES    LGT SNOW  21  13  71 NW20G28   29.80S WCI   6
6HR MIN TEMP:  20; 6HR MAX TEMP:  22; 6HR PCP: TRACE;

$$

IAZ062-063-075>077-085>089-095>099-081900-
   SOUTHEAST IOWA

CITY           SKY/WX    TMP DP  RH WIND       PRES   REMARKS
BURLINGTON     LGT SNOW  19  12  74 NW16G30   29.85S WCI   4
6HR MIN TEMP:  18; 6HR MAX TEMP:  22; 6HR PCP: TRACE;

FAIRFIELD *    LGT SNOW  18  10  73 NW25      29.89F WCI  -1
FORT MADISON * FLURRIES  19  12  73 NW21G32   29.87F WCI   3
KEOKUK *       CLOUDY    21  12  68 NW17G24   29.89S WCI   7
OSKALOOSA *    LGT SNOW  18  12  79 NW26G36   29.92S WCI  -1
OTTUMWA        FLURRIES  18  11  74 NW32G43   29.93R WCI  -2
6HR MIN TEMP:  16; 6HR MAX TEMP:  19; 6HR PCP: TRACE;

WASHINGTON *   FLURRIES  18  12  79 NW24G33   29.89S WCI   0
$$

ABBREVIATIONS USED IN REMARKS
   TC - TEMPERATURES IN CELSIUS
  WCI - WIND CHILL INDEX
   HX - HEAT INDEX
  VSB - VISIBILITY
$$





USA.gov is the U.S. government's official web portal to all federal, state and local government web resources and services.